This is the latest recevied weather packets stored in our database for station/object N0NPO. If no packets are shown the sender has not sent any weather packets the latest 10 day(s).
| Time | Temp. | Humidity | Pressure | Rain* | Wind** | Luminosity | Snow |
|---|---|---|---|---|---|---|---|
| 1777518490 | 6.11° C | 1% | 1022.5 hPa | 0 mm | - | 0 W/m² | - |
| 1777518185 | 6.67° C | 1% | 1022.6 hPa | 0 mm | - | 0 W/m² | - |
| 1777517882 | 6.67° C | 1% | 1022.5 hPa | 0 mm | - | 0 W/m² | - |
| 1777517577 | 6.67° C | 1% | 1022.4 hPa | 0 mm | - | 0 W/m² | - |
| 1777517276 | 7.22° C | 1% | 1022.4 hPa | 0 mm | - | 0 W/m² | - |
| 1777516974 | 6.67° C | 1% | 1022.3 hPa | 0 mm | - | 0 W/m² | - |
| 1777516671 | 6.67° C | 1% | 1022.3 hPa | 0 mm | - | 0 W/m² | - |
| 1777516367 | 6.67° C | 1% | 1021.9 hPa | 0 mm | - | 0 W/m² | - |
| 1777516063 | 6.67° C | 1% | 1022 hPa | 0 mm | - | 0 W/m² | - |
| 1777515760 | 7.22° C | 1% | 1021.9 hPa | 0 mm | - | 0 W/m² | - |
| 1777515456 | 7.78° C | 1% | 1021.9 hPa | 0 mm | - | 0 W/m² | - |
| 1777515153 | 7.78° C | 1% | 1021.8 hPa | 0 mm | - | 0 W/m² | - |
| 1777514850 | 7.78° C | 1% | 1021.6 hPa | 0 mm | - | 0 W/m² | - |
| 1777514547 | 7.78° C | 1% | 1021.6 hPa | 0 mm | - | 0 W/m² | - |
| 1777514245 | 7.78° C | 1% | 1021.6 hPa | 0 mm | - | 0 W/m² | - |
| 1777513940 | 7.78° C | 1% | 1021.4 hPa | 0 mm | - | 0 W/m² | - |
| 1777513638 | 8.33° C | 1% | 1021.3 hPa | 0 mm | - | 0 W/m² | - |
| 1777513335 | 8.33° C | 1% | 1021.4 hPa | 0 mm | - | 1 W/m² | - |
| 1777513030 | 8.89° C | 1% | 1021.3 hPa | 0 mm | - | 2 W/m² | - |
| 1777512727 | 8.89° C | 1% | 1021.5 hPa | 0 mm | - | 6 W/m² | - |
| 1777512424 | 9.44° C | 1% | 1021.1 hPa | 0 mm | - | 10 W/m² | - |
| 1777512120 | 10° C | 1% | 1021.1 hPa | 0 mm | - | 15 W/m² | - |
| 1777511819 | 10.56° C | 1% | 1021.2 hPa | 0 mm | - | 18 W/m² | - |
| 1777511515 | 10.56° C | 1% | 1021 hPa | 0 mm | - | 22 W/m² | - |
| 1777511212 | 11.11° C | 1% | 1020.8 hPa | 0 mm | - | 26 W/m² | - |
* Rain latest hour (hover to see other rain measurements)
** Current wind speed in m/s (hover to see current wind gust speed)